Location: Starlight Observatory
(38.4029°N, 85.8936°W)
Time: 22:15:27
(UTC-04:00)

Iridium 84 - Visible Passes

Search period start: 22 September 2014 00:00
Search period end: 02 October 2014 00:00
Orbit: 776 x 779 km, 86.4° (Epoch: 22 September)

Date Brightness Start Highest point End Pass type
(mag) Time Alt. Az. Time Alt. Az. Time Alt. Az.
22 Sep 7.2 04:19:54 31° ENE 04:19:54 31° ENE 04:23:22 10° NNE visible
22 Sep 6.8 06:00:24 23° WNW 06:00:24 23° WNW 06:03:38 10° NNW visible
23 Sep 8.1 03:46:59 17° ENE 03:46:59 17° ENE 03:48:58 10° NE visible
23 Sep 6.5 05:27:29 33° NW 05:27:29 33° NW 05:30:43 10° N visible
24 Sep 6.7 04:54:31 34° N 04:54:31 34° N 04:57:23 10° N visible
25 Sep 7.4 04:21:32 25° NNE 04:21:32 25° NNE 04:23:43 10° NNE visible
25 Sep 7.5 06:02:02 13° NW 06:02:02 13° NW 06:03:00 10° NW visible
26 Sep 8.1 03:48:31 15° NE 03:48:31 15° NE 03:49:41 10° NNE visible
26 Sep 7.4 05:29:01 17° NNW 05:29:01 17° NNW 05:30:31 10° NNW visible
27 Sep 7.5 04:55:58 19° N 04:55:58 19° N 04:57:24 10° N visible
28 Sep 7.9 04:22:54 16° N 04:22:54 16° N 04:23:56 10° N visible
29 Sep 8.4 03:49:48 12° NNE 03:49:48 12° NNE 03:50:08 10° NNE visible
30 Sep 8.0 04:57:10 11° NNW 04:57:10 11° NNW 04:57:18 10° NNW visible
